Tracking 25612 objects as of 20-May-2022
HD Live streaming from Space Station
objects crossing your sky now

CZ-6 R/B

Track CZ-6 R/B now!
10-day predictions


NORAD ID: 49061
Int'l Code: 2021-070C
Perigee: 588.9 km
Apogee: 901.8 km
Inclination: 89.0 °
Period: 99.6 minutes
Semi major axis: 7116 km
RCS: Unknown
Launch date: August 4, 2021
Source: People's Republic of China (PRC)
Launch site: Taiyaun Space Center, China (TSC)

Note: This is a ROCKET BODY
aabbcc
Your satellite tracking list
Your tracking list is empty




NASA's NSSDC Master Catalog

Two Line Element Set (TLE):
1 49061U 21070C   22140.40273230  .00000487  00000-0  96282-4 0  9990
2 49061  89.0479  20.5971 0219813 154.7286 206.4871 14.46166890 41761
Source of the keplerian elements: AFSPC